Date String (YYYY-MM-DD hh:mm:ss) UTC,Instrument flags,absolute air pressure of the measurement (hPa),sample flow rate (lpm),inlet stack bypass flow (lpm),air temperature of the measurement (°C),ambient temperature measured by the external sensor (°C),aerosol sample conditioner tube jacket temperature (°C),OPC LED temperature (°C),internal box temperature (°C),relative humidity of the measurement (%),span deviation,mass concentration of particles derived from Lorenz-Mie calculation of OPC scattering (μg/m³),mass concentration of particles derived from Lorenz-Mie calculation of OPC scattering (μg/m³),mass concentration of particles derived from Lorenz-Mie calculation of OPC scattering (μg/m³)
DateTimeUTC,F1_M11,P_M11,Q1_M11,Q2_M11,T1_M11,T2_M11,T3_M11,T4_M11,T5_M11,U1_M11,ZSPAN_M11,X0_M11,X2_M11,X1_M11
2023-07-19 02:00:00,SystemResetWarning,0833.0,5.00,000.00,028.4,025.1,000.0,036.8,029.9,31.5,0000.0,0015.44,0006.28,0005.22
2023-07-19 02:01:00,SystemResetWarning,0833.2,5.00,000.00,028.4,025.6,000.0,036.8,030.0,31.7,0000.0,0016.26,0006.30,0005.21
2023-07-19 02:02:00,SystemResetWarning,0833.0,4.99,000.00,028.5,026.1,000.0,036.8,030.1,31.9,0000.0,0015.94,0006.30,0005.21
2023-07-19 02:03:00,SystemResetWarning,0833.1,5.00,000.00,028.5,026.5,000.0,036.9,030.2,32.1,0000.0,0014.96,0006.30,0005.20
2023-07-19 02:04:00,SystemResetWarning,0833.2,5.00,000.00,028.5,026.8,000.0,036.9,030.2,31.9,0000.0,0014.71,0006.29,0005.21
2023-07-19 02:05:00,SystemResetWarning,0833.1,5.00,000.00,028.6,027.1,000.0,036.9,030.3,31.6,0000.0,0014.97,0006.32,0005.23
2023-07-19 02:06:00,SystemResetWarning,0833.2,4.99,000.00,028.6,027.4,000.0,036.9,030.4,31.5,0000.0,0015.62,0006.36,0005.25
2023-07-19 02:07:00,SystemResetWarning,0833.2,5.00,000.00,028.7,027.5,000.0,037.0,030.5,31.0,0000.0,0016.24,0006.41,0005.27
2023-07-19 02:08:00,SystemResetWarning,0833.1,4.98,000.00,028.7,026.4,000.0,036.9,030.4,30.4,0000.0,0016.36,0006.50,0005.31
2023-07-19 02:09:00,SystemResetWarning,0833.2,5.01,000.00,028.7,025.4,000.0,036.8,030.2,30.4,0000.0,0016.33,0006.57,0005.34
2023-07-19 02:10:00,SystemResetWarning,0833.2,5.01,000.00,028.6,025.5,000.0,036.8,030.1,30.3,0000.0,0017.22,0006.63,0005.37
2023-07-19 02:11:00,SystemResetWarning,0833.1,5.00,000.00,028.6,025.8,000.0,036.9,030.1,30.4,0000.0,0018.39,0006.62,0005.39
2023-07-19 02:12:00,SystemResetWarning,0833.2,5.00,000.00,028.6,026.2,000.0,036.9,030.2,31.0,0000.0,0017.79,0006.62,0005.42
2023-07-19 02:13:00,SystemResetWarning,0833.2,5.00,000.00,028.6,026.6,000.0,036.9,030.2,31.6,0000.0,0017.65,0006.65,0005.43
2023-07-19 02:14:00,SystemResetWarning,0833.2,5.00,000.00,028.6,026.9,000.0,037.0,030.3,31.8,0000.0,0019.20,0006.69,0005.44
2023-07-19 02:15:00,SystemResetWarning,0833.2,5.00,000.00,028.7,027.2,000.0,037.0,030.4,31.6,0000.0,0021.23,0006.76,0005.45
2023-07-19 02:16:00,SystemResetWarning,0833.2,5.00,000.00,028.7,027.4,000.0,037.0,030.5,31.5,0000.0,0022.59,0006.86,0005.48
2023-07-19 02:17:00,SystemResetWarning,0833.2,4.99,000.00,028.8,027.3,000.0,037.0,030.5,31.9,0000.0,0022.94,0006.93,0005.50
2023-07-19 02:18:00,SystemResetWarning,0833.2,4.99,000.00,028.8,025.6,000.0,036.9,030.3,31.8,0000.0,0023.06,0006.95,0005.50
2023-07-19 02:19:00,SystemResetWarning,0833.2,5.01,000.00,028.7,024.6,000.0,036.8,030.1,32.1,0000.0,0023.12,0006.97,0005.52
2023-07-19 02:20:00,SystemResetWarning,0833.2,5.01,000.00,028.6,024.6,000.0,036.8,029.9,31.8,0000.0,0023.12,0006.93,0005.53
2023-07-19 02:21:00,SystemResetWarning,0833.2,5.01,000.00,028.5,024.9,000.0,036.9,029.9,32.0,0000.0,0023.77,0006.93,0005.55
2023-07-19 02:22:00,SystemResetWarning,0833.2,5.00,000.00,028.5,025.4,000.0,036.9,030.0,32.2,0000.0,0022.79,0007.00,0005.56
2023-07-19 02:23:00,SystemResetWarning,0833.3,5.00,000.00,028.5,025.9,000.0,036.9,030.1,32.3,0000.0,0023.11,0006.99,0005.57
2023-07-19 02:24:00,SystemResetWarning,0833.2,5.00,000.00,028.5,026.3,000.0,036.9,030.2,31.9,0000.0,0023.27,0007.00,0005.58
2023-07-19 02:25:00,SystemResetWarning,0833.2,5.00,000.00,028.6,026.7,000.0,037.0,030.2,31.8,0000.0,0022.18,0006.99,0005.60
2023-07-19 02:26:00,SystemResetWarning,0833.3,5.00,000.00,028.6,027.0,000.0,037.0,030.3,31.7,0000.0,0020.08,0006.99,0005.64
2023-07-19 02:27:00,SystemResetWarning,0833.2,5.00,000.00,028.7,027.3,000.0,037.0,030.4,31.8,0000.0,0017.95,0006.98,0005.68
2023-07-19 02:28:00,SystemResetWarning,0833.3,5.00,000.00,028.7,027.5,000.0,037.0,030.5,31.7,0000.0,0016.74,0006.93,0005.72
2023-07-19 02:29:00,SystemResetWarning,0833.2,5.00,000.00,028.8,027.5,000.0,037.0,030.5,31.5,0000.0,0016.14,0006.91,0005.75
2023-07-19 02:30:00,SystemResetWarning,0833.2,4.99,000.00,028.8,026.2,000.0,036.9,030.4,31.4,0000.0,0015.94,0006.95,0005.78
2023-07-19 02:31:00,SystemResetWarning,0833.2,5.01,000.00,028.7,025.4,000.0,036.9,030.2,31.6,0000.0,0016.15,0007.02,0005.83
2023-07-19 02:32:00,SystemResetWarning,0833.2,5.01,000.00,028.7,025.5,000.0,036.9,030.1,31.6,0000.0,0016.52,0007.09,0005.87
2023-07-19 02:33:00,SystemResetWarning,0833.2,5.00,000.00,028.6,025.8,000.0,036.9,030.1,31.7,0000.0,0017.44,0007.08,0005.90
2023-07-19 02:34:00,SystemResetWarning,0833.2,4.99,000.00,028.6,026.2,000.0,037.0,030.2,31.9,0000.0,0017.01,0007.09,0005.94
2023-07-19 02:35:00,SystemResetWarning,0833.2,4.99,000.00,028.7,026.6,000.0,037.0,030.3,32.2,0000.0,0016.83,0007.14,0005.97
2023-07-19 02:36:00,SystemResetWarning,0833.2,5.01,000.00,028.7,026.9,000.0,037.0,030.4,31.8,0000.0,0017.23,0007.17,0006.02
2023-07-19 02:37:00,SystemResetWarning,0833.2,5.00,000.00,028.7,027.2,000.0,037.1,030.4,31.6,0000.0,0017.32,0007.20,0006.05
2023-07-19 02:38:00,SystemResetWarning,0833.2,4.99,000.00,028.8,027.4,000.0,037.1,030.5,31.5,0000.0,0017.85,0007.26,0006.07
2023-07-19 02:39:00,SystemResetWarning,0833.2,4.99,000.00,028.8,027.6,000.0,037.1,030.6,31.4,0000.0,0019.18,0007.36,0006.07
2023-07-19 02:40:00,SystemResetWarning,0833.2,5.00,000.00,028.8,026.3,000.0,037.0,030.4,31.4,0000.0,0019.82,0007.39,0006.09
2023-07-19 02:41:00,SystemResetWarning,0833.2,5.00,000.00,028.7,024.8,000.0,036.9,030.2,31.3,0000.0,0020.85,0007.42,0006.11
2023-07-19 02:42:00,SystemResetWarning,0833.2,5.01,000.00,028.7,024.4,000.0,036.8,030.0,31.4,0000.0,0020.87,0007.46,0006.12
2023-07-19 02:43:00,SystemResetWarning,0833.2,5.01,000.00,028.6,024.7,000.0,036.9,029.8,31.7,0000.0,0019.86,0007.46,0006.13
2023-07-19 02:44:00,SystemResetWarning,0833.2,5.00,000.00,028.5,025.2,000.0,036.9,029.9,31.7,0000.0,0018.18,0007.46,0006.15
2023-07-19 02:45:00,SystemResetWarning,0833.2,4.99,000.00,028.5,025.7,000.0,036.9,030.0,31.4,0000.0,0017.69,0007.43,0006.14
2023-07-19 02:46:00,SystemResetWarning,0833.2,5.00,000.00,028.5,026.1,000.0,037.0,030.1,31.4,0000.0,0017.42,0007.40,0006.14
2023-07-19 02:47:00,SystemResetWarning,0833.2,5.00,000.00,028.6,026.5,000.0,037.0,030.2,31.2,0000.0,0016.90,0007.35,0006.12
2023-07-19 02:48:00,SystemResetWarning,0833.2,5.00,000.00,028.6,026.9,000.0,037.0,030.3,31.2,0000.0,0017.31,0007.33,0006.12
2023-07-19 02:49:00,SystemResetWarning,0833.2,4.99,000.00,028.6,027.1,000.0,037.0,030.4,31.3,0000.0,0016.94,0007.26,0006.13
2023-07-19 02:50:00,SystemResetWarning,0833.2,5.00,000.00,028.7,027.4,000.0,037.0,030.4,31.2,0000.0,0015.83,0007.21,0006.14
2023-07-19 02:51:00,SystemResetWarning,0833.2,5.01,000.00,028.7,027.6,000.0,037.1,030.5,31.3,0000.0,0015.83,0007.25,0006.16
2023-07-19 02:52:00,SystemResetWarning,0833.2,5.00,000.00,028.8,027.6,000.0,037.1,030.6,31.3,0000.0,0015.39,0007.23,0006.15
2023-07-19 02:53:00,SystemResetWarning,0833.2,4.98,000.00,028.8,026.2,000.0,037.0,030.4,30.9,0000.0,0014.75,0007.18,0006.17
2023-07-19 02:54:00,SystemResetWarning,0833.2,5.02,000.00,028.7,025.4,000.0,036.9,030.2,30.9,0000.0,0014.50,0007.18,0006.18
2023-07-19 02:55:00,SystemResetWarning,0833.2,5.00,000.00,028.7,025.5,000.0,036.9,030.1,31.1,0000.0,0014.41,0007.16,0006.18
2023-07-19 02:56:00,SystemResetWarning,0833.2,5.00,000.00,028.6,025.8,000.0,037.0,030.1,31.5,0000.0,0014.53,0007.21,0006.20
2023-07-19 02:57:00,SystemResetWarning,0833.3,5.00,000.00,028.6,026.2,000.0,037.0,030.2,31.7,0000.0,0014.65,0007.24,0006.21
2023-07-19 02:58:00,SystemResetWarning,0833.2,5.00,000.00,028.7,026.6,000.0,037.0,030.3,31.6,0000.0,0014.58,0007.27,0006.22
2023-07-19 02:59:00,SystemResetWarning,0833.4,5.00,000.00,028.7,026.9,000.0,037.1,030.4,31.5,0000.0,0014.26,0007.31,0006.23
